Flight Track Log - Related Links

Times and Time Zones

All times are in EDT time to prevent confusion due to time zone crossing. See the AAR8738 flight status page for this flight to view local times or setup timezone preferences in your user account.

Time Position Orientation Groundspeed Altitude Reporting Facility
EDT Latitude Longitude Course Direction KTS MPH feet Rate Location/Type
Sun 06:04:00 AM 35.2185 127.5039 346° North  Level Estimated
Sun 06:05:00 AM 35.2943 127.4815 346° North  Level Estimated
Sun 06:06:00 AM 35.3700 127.4590 346° North  Level Estimated
Sun 06:07:00 AM 35.4457 127.4365 346° North  Level Estimated
Sun 06:08:00 AM 35.5214 127.4140 346° North  Level Estimated
Sun 06:09:00 AM 35.5971 127.3914 346° North  Level Estimated
Sun 06:10:00 AM 35.6728 127.3688 346° North  Level Estimated
Sun 06:11:00 AM 35.7486 127.3461 346° North  Level Estimated
Sun 06:12:00 AM 35.8242 127.3234 346° North  Level Estimated
Sun 06:13:00 AM 35.8999 127.3007 346° North  Level Estimated
Sun 06:14:00 AM 35.9756 127.2779 346° North  Level Estimated
Sun 06:15:00 AM 36.0513 127.2550 346° North  Level Estimated
Sun 06:16:00 AM 36.1270 127.2322 346° North  Level Estimated
Sun 06:17:00 AM 36.2027 127.2092 346° North  Level Estimated
Sun 06:18:00 AM 36.2784 127.1863 346° North  Level Estimated
Sun 06:19:00 AM 36.3540 127.1632 346° North  Level Estimated
Sun 06:20:00 AM 36.4297 127.1402 346° North  Level Estimated
Sun 06:21:00 AM 36.5054 127.1171 346° North  Level Estimated
Sun 06:22:00 AM 36.5810 127.0939 346° North  Level Estimated
Sun 06:23:00 AM 36.6567 127.0707 346° North  Level Estimated
Sun 06:24:00 AM 36.7323 127.0475 346° North  Level Estimated
Sun 06:25:00 AM 36.8080 127.0242 346° North  Level Estimated
Sun 06:26:00 AM 36.8836 127.0009 346° North  Level Estimated
Sun 06:27:00 AM 36.9593 126.9775 346° North  Level Estimated
Sun 06:28:00 AM 37.0349 126.9540 346° North  Level Estimated
Sun 06:28:48 AM 37.3950 126.9630 346° North 10,300  Level FlightAware ADS-B
Sun 06:29:00 AM 37.1105 126.9306 346° North  Level Estimated
Sun 06:29:17 AM 37.4150 126.9230 302° West 310 357 9,900  Level FlightAware ADS-B
Sun 06:29:33 AM 37.4210 126.9040 292° West 183 211 9,700 -1,017 Descending FlightAware ADS-B
Sun 06:30:16 AM 37.4430 126.8350 292° West 304 350 8,900 -1,116 Descending FlightAware ADS-B
Sun 06:32:00 AM 37.5583 126.7906 343° North  Level Estimated
Sun 06:33:00 AM 37.5583 126.7906 288° West  Level Estimated
Sun 06:34:00 AM 37.5583 126.7906 288° West  Level Estimated
Sun 06:35:00 AM 37.5583 126.7906 288° West  Level Estimated
Sun 06:36:00 AM 37.5583 126.7906 288° West  Level Estimated
Sun 06:37:00 AM 37.5583 126.7906 288° West  Level Estimated
Sun 06:38:00 AM 37.5583 126.7906 288° West  Level Estimated
Sun 06:39:00 AM 37.5583 126.7906 288° West  Level Estimated
Sun 06:40:00 AM 37.5583 126.7906 288° West  Level Estimated
Sun 06:41:00 AM 37.5583 126.7906 288° West  Level Estimated
Sun 06:42:00 AM 37.5583 126.7906 288° West  Level Estimated
Sun 06:43:00 AM 37.5583 126.7906 288° West  Level Estimated
Sun 06:44:00 AM 37.5583 126.7906 288° West  Level Estimated
Sun 06:45:00 AM 37.5583 126.7906 288° West  Level Estimated
Sun 06:46:00 AM 37.5583 126.7906 288° West  Level Estimated
Sun 06:47:00 AM 37.5583 126.7906 288° West  Level Estimated
Sun 06:48:00 AM 37.5583 126.7906 288° West  Level Estimated
Sun 06:49:00 AM 37.5583 126.7906 288° West  Level Estimated
Sun 06:50:00 AM 37.5583 126.7906 288° West  Level Estimated
Sun 06:51:00 AM 37.5583 126.7906 288° West  Level Estimated

Login

Don't have an account? Register now (free) for customized features, flight alerts, and more!